Location: *
(32.8667°N, 13.1833°E)
Time: 10:26:54
(UTC+00:00)

ERBS - Pass Details

Date: 18 July 2019
Orbit: 416 x 429 km, 57.0° (Epoch: 25 August)

Event Time Altitude Azimuth Distance (km) Brightness Sun altitude
Rises 19:32:54 0° 320° (NW) 2,358 7.7 -14.7°
Reaches altitude 10° 19:34:59 10° 319° (NW) 1,493 6.4 -15.1°
Maximum altitude 19:38:19 80° 232° (SW) 427 2.2 -15.6°
Enters shadow 19:39:32 36° 151° (SSE) 675 2.8 -15.8°
